Location: Centerville
(32.8776°N, 96.6203°W)
Time: 23:23:22
(UTC+00:00)

Cosmos 2098 Rocket - Pass Details

Date: 17 June 2021
Orbit: 366 x 1176 km, 82.9° (Epoch: 01 August)

Event Time Altitude Azimuth Distance (km) Brightness Sun altitude
Exits shadow 07:59:44 80° 44° (NE) 902 3.8 -29.6°
Drops below altitude 10° 08:04:43 10° 8° (N) 2,297 6.8 -29.1°
Sets 08:06:48 0° 7° (N) 3,106 7.7 -28.9°
